Notices

What's New in latest Release from April 7th, 2021:

- Updated Glossary, including Speed of Maximum Gust, and Total Hourly Precipitation

- Updated national and regional climate services offices contacts and prices information

- Addition of station inventory lists for 1981-2010, 1971-2000, and 1961-1990 Normals.

If you haven't already, please take our survey and provide feedback about our website: https://eccc.sondage-survey.ca/f/LanguageSelection.aspx?s=442ca660-fcf1-47c0-95a9-59707d6fd709

Hourly Data Report for February 07, 2017

TORONTO INTL A
ONTARIO

43°40'36.000" N
79°37'50.000" W
173.40 m
6158731
71624
YYZ

Download Data

Hourly Data (February 2017)
Hourly Data Report for February 7, 2017
TIME
LST
Temp Definition
°C
Dew Point Definition
°C
Rel Hum Definition
%
Precip. Amount Definition
mm

Wind Dir Definition
10's deg

Wind Spd Definition
km/h
Visibility Definition
km
Stn Press Definition
kPa
Hmdx Definition


Wind Chill Definition


Weather Definition


00:00 0.8 -5.3 64   7 7 24.1 99.16     LegendNANA
01:00 1.0 -4.9 65   8 9 24.1 99.10     Cloudy
02:00 0.9 -4.0 70   7 10 24.1 99.06     LegendNANA
03:00 0.5 -3.3 76   6 10 24.1 99.02     LegendNANA
04:00 0.2 -3.0 79   8 9 24.1 99.03     Cloudy
05:00 0.3 -2.6 81   8 18 19.3 98.94     LegendNANA
06:00 0.6 -2.0 83   8 22 19.3 98.86     LegendNANA
07:00 0.7 -3.4 74   8 22 16.1 98.89     Mostly Cloudy
08:00 0.2 -3.7 75   9 21 16.1 98.86     LegendNANA
09:00 -0.4 -4.7 73   8 27 16.1 98.78   -7 LegendNANA
10:00 -0.8 -4.5 76   8 21 19.3 98.67   -6 Cloudy
11:00 -1.2 -4.4 79   8 25 24.1 98.57   -7 LegendNANA
12:00 -1.1 -2.7 89   9 26 9.7 98.36   -7 Freezing Rain
13:00 -1.2 -2.3 92   10 23 12.9 98.16   -7 Freezing Rain
14:00 -1.3 -2.4 92   8 26 6.4 97.99   -8 Freezing Rain,Fog
15:00 -1.5 -2.6 92   9 25 6.4 97.80   -8 Freezing Rain,Fog
16:00 -1.3 -2.3 93   8 24 6.4 97.63   -7 Freezing Rain,Fog
17:00 -1.2 -2.2 93   8 19 6.4 97.51   -7 Freezing Rain,Fog
18:00 -0.9 -1.8 94   8 18 9.7 97.33   -6 Freezing Rain,Fog
19:00 -0.4 -1.1 95   9 8 4.8 97.21   -3 Freezing Rain,Fog
20:00 -0.1 -0.8 95   4 5 6.4 97.12   -2 Freezing Drizzle,Fog
21:00 0.0 -0.7 95   36 1 4.8 97.00   0 Freezing Rain,Fog
22:00 0.3 -0.3 96   17 4 4.8 96.90     Rain,Fog
23:00 1.6 1.2 97   22 8 4.0 96.91     Drizzle,Fog

Notes on Data Quality.

Legend

  • E = Estimated
  • M = Missing
  • NA = Not Available*
  • [empty] = Indicates an unobserved value
Date modified: